Howell, MI

2:05 PM EST on December 14, 2017 (GMT -0500)
Livingston County

Weather History for KOZW - April, 2012

Change the Weather History Date:

Thursday, April 26, 2012

  Actual Average Record
Temperature  
Mean Temperature 45 °F -  
Max Temperature 53 °F 61 °F 81 °F (2017)
Min Temperature 37 °F 39 °F 29 °F (2013)
Degree Days  
Heating Degree Days 20    
Moisture  
Dew Point 39 °F    
Average Humidity 74    
Maximum Humidity 93    
Minimum Humidity 46    
Precipitation  
Precipitation 0.00 in - - ()
Sea Level Pressure  
Sea Level Pressure 29.78 in    
Wind  
Wind Speed 8 mph (NW)    
Max Wind Speed 21 mph    
Max Gust Speed 30 mph    
Visibility 9 miles    
Events Rain    
Averages and records for this station are not official NWS values.
T = Trace of Precipitation, MM = Missing Value Source: NWS Daily Summary

Daily Weather History Graph

Daily Weather History Graph

Search for Another Location

Airport or City:

Trip Planner

Search our weather history database for the weather conditions in past years. The results will help you decide how hot, cold, wet, or windy it might be!

Date:

Astronomy

Apr. 26, 2012 Rise Set
Actual Time 6:36 AM EDT 8:31 PM EDT
Civil Twilight 6:06 AM EDT 9:01 PM EDT
Nautical Twilight 5:29 AM EDT 9:38 PM EDT
Astronomical Twilight 4:49 AM EDT 10:19 PM EDT
Moon 10:12 AM EDT (4/26) 12:38 AM EDT (4/26)
Length of Visible Light 14h 54m
Length of Day
13h 54m
Waxing Crescent, 24% of the Moon is Illuminated
Apr 26
Waxing Crescent
Apr 29
First Quarter
May 5
Full
May 12
Last Quarter
May 20
New

Hourly Weather History & Observations

Time (EDT) Temp. Windchill Dew Point Humidity Pressure Visibility Wind Dir Wind Speed Gust Speed Precip Events Conditions
12:14 AM 49.3 °F - 47.1 °F 92% 29.74 in 7.0 mi SSE 4.6 mph - N/A   Overcast
12:34 AM 49.1 °F - 46.2 °F 90% 29.73 in 10.0 mi SE 5.8 mph - N/A   Overcast
12:55 AM 49.1 °F - 45.9 °F 89% 29.74 in 10.0 mi South 3.5 mph - N/A   Overcast
1:14 AM 49.1 °F - 45.5 °F 87% 29.73 in 10.0 mi South 6.9 mph - N/A Rain Light Rain
1:34 AM 48.6 °F - 45.5 °F 89% 29.72 in 7.0 mi South 5.8 mph - N/A Rain Light Rain
1:54 AM 48.2 °F - 45.7 °F 91% 29.70 in 7.0 mi SSE 6.9 mph - N/A   Light Drizzle
2:14 AM 48.2 °F - 45.7 °F 91% 29.71 in 10.0 mi ESE 4.6 mph - N/A   Overcast
2:34 AM 48.4 °F - 45.9 °F 91% 29.70 in 7.0 mi East 3.5 mph - N/A   Overcast
2:54 AM 48.4 °F - 45.9 °F 91% 29.68 in 7.0 mi SE 3.5 mph - N/A   Overcast
3:35 AM 48.4 °F - 45.9 °F 91% 29.67 in 7.0 mi Calm Calm - N/A   Overcast
3:54 AM 48.4 °F - 46.0 °F 92% 29.65 in 7.0 mi SE 4.6 mph - N/A   Overcast
4:14 AM 47.7 °F - 45.5 °F 92% 29.65 in 7.0 mi ESE 3.5 mph - N/A   Mostly Cloudy
4:35 AM 46.8 °F - 44.8 °F 93% 29.65 in 7.0 mi SSE 5.8 mph - N/A   Scattered Clouds
4:54 AM 47.5 °F - 45.7 °F 93% 29.65 in 7.0 mi SSE 4.6 mph - N/A   Mostly Cloudy
5:14 AM 47.7 °F - 45.7 °F 93% 29.65 in 5.0 mi SSE 5.8 mph - N/A Rain Rain
5:34 AM 47.5 °F - 45.5 °F 93% 29.64 in 5.0 mi SE 4.6 mph - N/A Rain Light Rain
5:54 AM 47.5 °F - 45.5 °F 93% 29.63 in 7.0 mi SSE 5.8 mph - N/A   Overcast
6:15 AM 47.5 °F - 45.5 °F 93% 29.63 in 7.0 mi South 4.6 mph - N/A   Overcast
6:34 AM 47.5 °F - 45.5 °F 93% 29.63 in 7.0 mi South 3.5 mph - N/A   Overcast
6:54 AM 47.5 °F - 45.5 °F 93% 29.63 in 7.0 mi Calm Calm - N/A   Overcast
7:14 AM 47.7 °F - 45.7 °F 93% 29.64 in 5.0 mi Calm Calm - N/A   Overcast
7:34 AM 48.2 °F - 46.0 °F 92% 29.64 in 5.0 mi Calm Calm - N/A   Overcast
7:54 AM 48.6 °F - 46.4 °F 92% 29.65 in 5.0 mi Calm Calm - N/A   Overcast
8:14 AM 49.1 °F - 46.6 °F 91% 29.66 in 5.0 mi Calm Calm - N/A   Overcast
8:34 AM 49.3 °F - 46.6 °F 90% 29.67 in 5.0 mi NW 3.5 mph - N/A   Overcast
8:54 AM 49.3 °F - 46.8 °F 91% 29.66 in 5.0 mi WSW 3.5 mph - N/A   Overcast
9:14 AM 50.0 °F - 47.3 °F 90% 29.66 in 5.0 mi West 3.5 mph - N/A   Overcast
9:34 AM 50.9 °F - 47.3 °F 87% 29.67 in 7.0 mi WNW 6.9 mph - N/A   Overcast
9:54 AM 51.3 °F - 47.3 °F 86% 29.68 in 7.0 mi WNW 8.1 mph - N/A   Overcast
10:14 AM 52.3 °F - 47.5 °F 84% 29.68 in 7.0 mi WNW 11.5 mph 17.3 mph N/A   Overcast
10:35 AM 52.0 °F - 47.3 °F 84% 29.68 in 7.0 mi NW 10.4 mph 16.1 mph N/A   Overcast
10:54 AM 52.0 °F - 46.8 °F 82% 29.69 in 10.0 mi NW 11.5 mph 17.3 mph N/A   Overcast
11:14 AM 52.3 °F - 46.9 °F 82% 29.70 in 10.0 mi NNW 6.9 mph 20.7 mph N/A   Overcast
11:35 AM 52.3 °F - 46.0 °F 79% 29.70 in 10.0 mi NW 10.4 mph 16.1 mph N/A   Overcast
11:54 AM 52.2 °F - 46.0 °F 80% 29.71 in 10.0 mi NW 11.5 mph 18.4 mph N/A   Overcast
12:14 PM 52.0 °F - 45.7 °F 79% 29.72 in 10.0 mi NNW 11.5 mph - N/A   Overcast
12:34 PM 51.1 °F - 45.0 °F 80% 29.73 in 10.0 mi NNW 12.7 mph 24.2 mph N/A   Overcast
12:54 PM 50.7 °F - 45.5 °F 82% 29.73 in 10.0 mi NW 17.3 mph - N/A   Overcast
1:34 PM 50.2 °F - 43.5 °F 78% 29.76 in 10.0 mi North 15.0 mph 21.9 mph N/A   Overcast
1:54 PM 50.5 °F - 41.5 °F 71% 29.77 in 10.0 mi NNW 12.7 mph 23.0 mph N/A   Overcast
2:14 PM 50.0 °F - 41.0 °F 71% 29.78 in 10.0 mi NNW 16.1 mph 24.2 mph N/A   Overcast
2:34 PM 49.8 °F - 39.9 °F 69% 29.79 in 10.0 mi NNW 20.7 mph 29.9 mph N/A   Overcast
2:54 PM 49.5 °F - 39.9 °F 70% 29.80 in 10.0 mi NNW 15.0 mph 21.9 mph N/A   Overcast
3:15 PM 51.1 °F - 38.8 °F 63% 29.80 in 10.0 mi NW 17.3 mph 23.0 mph N/A   Overcast
3:34 PM 50.0 °F - 37.8 °F 63% 29.81 in 10.0 mi NNW 15.0 mph 25.3 mph N/A   Overcast
3:54 PM 50.2 °F - 37.6 °F 62% 29.82 in 10.0 mi NNW 13.8 mph 21.9 mph N/A   Overcast
4:15 PM 50.9 °F - 35.2 °F 55% 29.83 in 10.0 mi NW 15.0 mph 23.0 mph N/A   Overcast
4:34 PM 53.8 °F - 33.6 °F 46% 29.84 in 10.0 mi NW 18.4 mph 25.3 mph N/A   Mostly Cloudy
4:54 PM 51.8 °F - 32.2 °F 47% 29.85 in 10.0 mi NNW 11.5 mph 24.2 mph N/A   Mostly Cloudy
5:14 PM 52.0 °F - 32.2 °F 47% 29.85 in 10.0 mi NW 19.6 mph 27.6 mph N/A   Scattered Clouds
5:34 PM 52.3 °F - 32.9 °F 48% 29.86 in 10.0 mi NNW 16.1 mph 24.2 mph N/A   Scattered Clouds
5:54 PM 51.4 °F - 31.8 °F 47% 29.88 in 10.0 mi NW 17.3 mph 28.8 mph N/A   Scattered Clouds
6:15 PM 50.0 °F - 31.8 °F 50% 29.89 in 10.0 mi NNW 20.7 mph 28.8 mph N/A   Scattered Clouds
6:34 PM 49.3 °F - 32.0 °F 51% 29.91 in 10.0 mi NW 17.3 mph 25.3 mph N/A   Scattered Clouds
6:54 PM 48.2 °F - 31.5 °F 52% 29.91 in 10.0 mi NW 12.7 mph 26.5 mph N/A   Scattered Clouds
7:14 PM 47.1 °F - 28.0 °F 48% 29.92 in 10.0 mi NNW 15.0 mph 25.3 mph N/A   Scattered Clouds
7:34 PM 45.7 °F 38.3 °F 27.1 °F 48% 29.93 in 10.0 mi NW 18.4 mph 23.0 mph N/A   Clear
7:55 PM 44.2 °F 38.0 °F 26.6 °F 50% 29.94 in 10.0 mi NW 12.7 mph 28.8 mph N/A   Clear
8:14 PM 43.0 °F 36.8 °F 24.8 °F 49% 29.95 in 10.0 mi NNW 11.5 mph 20.7 mph N/A   Clear
8:34 PM 41.9 °F 35.0 °F 24.8 °F 51% 29.97 in 10.0 mi NW 12.7 mph - N/A   Clear
8:55 PM 41.2 °F 34.5 °F 24.6 °F 52% 29.98 in 10.0 mi NNW 11.5 mph 16.1 mph N/A   Clear
9:14 PM 40.5 °F 34.6 °F 24.8 °F 54% 29.99 in 10.0 mi NW 9.2 mph - N/A   Clear
9:34 PM 40.5 °F 33.6 °F 23.9 °F 52% 30.00 in 10.0 mi NNW 11.5 mph 18.4 mph N/A   Clear
9:55 PM 39.6 °F 33.0 °F 23.9 °F 54% 30.01 in 10.0 mi NW 10.4 mph - N/A   Clear
10:14 PM 39.2 °F 31.2 °F 23.4 °F 53% 30.02 in 10.0 mi NW 13.8 mph 18.4 mph N/A   Clear
10:34 PM 39.2 °F 32.5 °F 21.4 °F 49% 30.03 in 10.0 mi NNW 10.4 mph 18.4 mph N/A   Clear
10:54 PM 38.3 °F 31.9 °F 20.7 °F 49% 30.05 in 10.0 mi NNW 9.2 mph 18.4 mph N/A   Clear
11:14 PM 37.6 °F 31.0 °F 20.3 °F 50% 30.05 in 10.0 mi NW 9.2 mph 16.1 mph N/A   Clear
11:34 PM 37.2 °F 30.0 °F 19.9 °F 50% 30.07 in 10.0 mi NNW 10.4 mph 18.4 mph N/A   Clear